This is the latest recevied weather packets stored in our database for station/object WX2NJ. If no packets are shown the sender has not sent any weather packets the latest 10 day(s).
| Time | Temp. | Humidity | Pressure | Rain* | Wind** | Luminosity | Snow |
|---|---|---|---|---|---|---|---|
| 1777534172 | 9.44° C | 92% | 1011.7 hPa | 3.05 mm | - | 0 W/m² | - |
| 1777533869 | 9.44° C | 92% | 1011.5 hPa | 2.29 mm | - | 0 W/m² | - |
| 1777533566 | 9.44° C | 92% | 1011.6 hPa | 0.51 mm | - | 0 W/m² | - |
| 1777533262 | 9.44° C | 92% | 1011.2 hPa | 1.27 mm | - | 0 W/m² | - |
| 1777532958 | 9.44° C | 92% | 1011.5 hPa | 1.78 mm | - | 0 W/m² | - |
| 1777532655 | 9.44° C | 92% | 1011.6 hPa | 1.27 mm | - | 0 W/m² | - |
| 1777532353 | 9.44° C | 92% | 1011.6 hPa | 1.27 mm | - | 0 W/m² | - |
| 1777532049 | 9.44° C | 92% | 1011.7 hPa | 0.51 mm | - | 0 W/m² | - |
| 1777531744 | 9.44° C | 92% | 1011.3 hPa | 0 mm | - | 0 W/m² | - |
| 1777531441 | 9.44° C | 92% | 1011.4 hPa | 0.51 mm | - | 0 W/m² | - |
| 1777531139 | 9.44° C | 92% | 1011.3 hPa | 1.27 mm | - | 0 W/m² | - |
| 1777530836 | 9.44° C | 92% | 1011.5 hPa | 1.78 mm | - | 0 W/m² | - |
| 1777530534 | 9.44° C | 92% | 1011.4 hPa | 4.32 mm | - | 0 W/m² | - |
| 1777530230 | 9.44° C | 92% | 1011.6 hPa | 3.56 mm | - | 0 W/m² | - |
| 1777529927 | 9.44° C | 92% | 1011.7 hPa | 2.29 mm | - | 0 W/m² | - |
| 1777529623 | 9.44° C | 92% | 1011.6 hPa | 0.51 mm | - | 0 W/m² | - |
| 1777529321 | 9.44° C | 92% | 1011.4 hPa | 0.51 mm | - | 0 W/m² | - |
| 1777529017 | 9.44° C | 92% | 1011.3 hPa | 0.51 mm | - | 0 W/m² | - |
| 1777528712 | 9.44° C | 92% | 1011.4 hPa | 0 mm | - | 0 W/m² | - |
| 1777528410 | 9.44° C | 92% | 1011.4 hPa | 0 mm | - | 0 W/m² | - |
| 1777528108 | 9.44° C | 92% | 1011.3 hPa | 0 mm | - | 0 W/m² | - |
| 1777527805 | 9.44° C | 92% | 1011.5 hPa | 0 mm | - | 0 W/m² | - |
| 1777527500 | 9.44° C | 92% | 1011.7 hPa | 0 mm | - | 0 W/m² | - |
| 1777527195 | 9.44° C | 92% | 1011.7 hPa | 0 mm | - | 0 W/m² | - |
| 1777526892 | 9.44° C | 92% | 1011.8 hPa | 0 mm | - | 0 W/m² | - |
* Rain latest hour (hover to see other rain measurements)
** Current wind speed in m/s (hover to see current wind gust speed)